TimeAKDT,TemperatureF,Dew PointF,Humidity,Sea Level PressureIn,VisibilityMPH,Wind Direction,Wind SpeedMPH,Gust SpeedMPH,PrecipitationIn,Events,Conditions,WindDirDegrees,DateUTC
12:53 AM,51.1,48.0,89,29.94,10.0,Calm,Calm,-,N/A,,Overcast,0,2012-10-04 08:53:00
1:53 AM,51.1,48.0,89,29.92,10.0,Variable,5.8,-,N/A,,Overcast,0,2012-10-04 09:53:00
2:53 AM,53.1,46.9,80,29.92,10.0,Variable,4.6,-,N/A,,Mostly Cloudy,0,2012-10-04 10:53:00
3:53 AM,50.0,48.0,93,29.92,10.0,Calm,Calm,-,N/A,,Mostly Cloudy,0,2012-10-04 11:53:00
4:53 AM,53.1,46.9,80,29.91,10.0,SSE,5.8,-,N/A,,Overcast,150,2012-10-04 12:53:00
5:53 AM,54.0,46.0,75,29.91,10.0,South,8.1,18.4,N/A,,Mostly Cloudy,170,2012-10-04 13:53:00
6:53 AM,54.0,46.0,75,29.89,10.0,South,8.1,19.6,N/A,,Mostly Cloudy,170,2012-10-04 14:53:00
7:53 AM,55.0,46.0,72,29.93,10.0,South,13.8,27.6,N/A,,Overcast,190,2012-10-04 15:53:00
8:53 AM,53.1,48.0,83,29.94,10.0,Variable,3.5,-,0.00,Rain,Light Rain,0,2012-10-04 16:53:00
9:53 AM,53.1,48.9,86,29.94,10.0,Variable,5.8,-,0.02,Rain,Light Rain,0,2012-10-04 17:53:00
10:53 AM,54.0,48.9,83,29.94,-9999.0,Variable,5.8,-,N/A,,Mostly Cloudy,0,2012-10-04 18:53:00
11:53 AM,55.0,48.0,77,29.94,10.0,North,-9999.0,-,N/A,,Mostly Cloudy,0,2012-10-04 19:53:00
12:30 PM,55.4,48.2,77,29.95,9.0,North,-9999.0,-,N/A,,Overcast,0,2012-10-04 20:30:00
12:53 PM,54.0,48.9,83,29.97,8.0,SSW,8.1,-,N/A,,Overcast,200,2012-10-04 20:53:00
1:53 PM,55.9,50.0,80,29.99,7.0,SSW,8.1,-,0.00,,Overcast,200,2012-10-04 21:53:00
2:26 PM,55.4,50.0,82,29.99,-9999.0,North,-9999.0,-,N/A,,Unknown,0,2012-10-04 22:26:00
2:53 PM,-9999,-9999,N/A,30.01,-9999.0,North,-9999.0,-,N/A,,Unknown,0,2012-10-04 22:53:00
3:53 PM,54.0,48.0,80,30.00,8.0,South,10.4,26.5,N/A,,Overcast,180,2012-10-04 23:53:00
4:01 PM,53.6,48.2,82,30.01,10.0,South,10.4,24.2,0.00,Rain,Light Rain,190,2012-10-05 00:01:00
4:38 PM,53.6,44.6,72,30.03,10.0,SSW,9.2,19.6,0.00,,Mostly Cloudy,200,2012-10-05 00:38:00
4:45 PM,53.6,44.6,72,30.03,10.0,SSW,10.4,21.9,0.00,,Overcast,200,2012-10-05 00:45:00
4:53 PM,53.1,45.0,74,30.03,10.0,South,10.4,24.2,0.00,,Overcast,190,2012-10-05 00:53:00
5:53 PM,51.1,45.0,80,30.05,10.0,SSW,10.4,-,0.00,,Overcast,210,2012-10-05 01:53:00
6:53 PM,50.0,45.0,83,30.06,9.0,Variable,4.6,-,0.00,Rain,Light Rain,0,2012-10-05 02:53:00
7:53 PM,50.0,45.0,83,30.08,9.0,South,6.9,-,0.00,Rain,Light Rain,190,2012-10-05 03:53:00
8:53 PM,50.0,46.0,86,30.11,9.0,South,4.6,-,0.01,Rain,Light Rain,180,2012-10-05 04:53:00
9:53 PM,50.0,45.0,83,30.12,10.0,South,4.6,-,0.00,Rain,Light Rain,190,2012-10-05 05:53:00
10:53 PM,50.0,45.0,83,30.15,10.0,Calm,Calm,-,0.01,Rain,Light Rain,0,2012-10-05 06:53:00
11:53 PM,48.9,45.0,86,30.17,10.0,Calm,Calm,-,0.00,,Overcast,0,2012-10-05 07:53:00